Wind_Speed
18 18 18 17 18 18 18 18 18 18 19 20 20 20 21 21 21 21 21 21 22 23 24 24 24 24 24 24 24 24 24 24 24 23 23 23 22 22
18 18 18 18 18 18 18 19 19 19 20 20 21 22 21 21 21 21 21 21 22 23 24 25 25 25 25 25 25 25 25 25 25 24 24 24 24 23
19 18 19 19 19 19 19 20 20 20 21 21 21 21 22 22 22 22 22 21 22 23 24 25 26 26 26 26 26 27 26 26 26 26 26 26 25 25
20 19 19 19 19 19 20 20 20 20 20 21 21 21 22 22 23 23 23 22 23 23 23 24 25 26 27 28 28 28 28 28 28 28 27 27 26 26
20 20 20 20 19 19 20 20 21 21 21 21 22 22 23 23 23 24 24 24 24 25 25 25 26 26 28 28 28 28 28 29 29 29 28 28 28 27
21 21 21 20 21 21 20 21 21 21 21 22 23 23 24 24 25 25 25 26 26 26 27 27 28 28 28 27 28 28 28 29 29 29 29 29 28 28
22 22 22 22 22 22 22 22 22 22 23 23 24 24 25 25 26 27 27 27 28 28 28 29 29 29 29 28 28 29 29 29 28 28 29 29 29 29
23 24 24 24 24 24 24 24 24 24 25 25 26 26 26 26 27 28 28 28 29 29 29 29 29 29 29 28 28 28 29 28 28 28 28 29 29 29
25 25 25 26 25 25 26 26 26 26 27 27 27 27 27 28 29 29 29 30 30 30 30 29 30 29 29 28 28 28 28 28 28 28 28 28 29 29
26 26 26 26 26 26 26 27 27 28 28 28 28 28 29 29 30 30 31 31 32 31 31 30 30 30 29 29 29 29 28 29 29 29 29 29 29 30
27 27 27 27 27 27 28 28 28 29 29 30 30 31 31 31 31 31 32 33 32 31 32 31 31 30 30 29 29 29 29 29 29 29 29 30 30 30
28 28 28 28 28 28 28 29 29 29 30 31 31 32 32 32 33 33 34 34 33 32 32 32 31 31 30 30 30 30 30 30 29 29 30 30 30 30
28 29 29 29 29 29 29 29 29 30 30 30 31 32 32 33 33 34 34 34 33 32 32 33 32 32 31 31 30 30 30 30 30 29 29 30 30 31
28 29 29 29 29 30 30 30 30 31 31 31 32 33 33 33 33 34 34 34 34 33 33 33 32 32 32 32 31 30 30 30 30 29 29 30 30 30
30 29 29 29 30 30 30 31 31 32 32 33 32 33 33 33 34 34 34 34 33 33 32 32 32 31 31 31 31 31 31 30 29 30 30 30 30 30
31 31 30 30 30 31 31 32 32 32 32 32 32 32 32 33 33 33 33 33 33 33 32 32 31 31 31 31 31 31 31 31 31 31 30 30 30 31
32 32 31 31 31 31 32 32 32 32 32 32 32 32 32 32 32 32 32 32 31 32 31 31 30 30 30 30 30 30 31 31 31 31 31 30 30 30
31 31 31 31 31 31 31 31 32 32 31 31 32 32 32 31 31 31 31 30 30 30 30 30 29 30 29 29 29 29 29 30 30 30 30 31 31 31
32 32 32 32 32 31 31 31 31 31 30 31 31 31 30 30 30 30 30 29 29 28 28 28 28 28 28 28 28 28 28 28 29 29 30 30 31 31
33 33 33 32 32 31 31 31 30 29 29 30 30 30 29 29 28 28 28 28 28 28 28 28 27 27 27 27 27 26 27 27 27 28 29 29 30 30
33 32 32 31 31 30 29 28 28 28 28 28 28 27 27 27 27 27 27 27 28 27 27 27 28 28 28 27 27 26 26 27 27 27 28 28 28 28
33 32 31 30 29 29 28 27 27 27 27 27 27 26 26 26 26 26 26 26 26 26 26 26 27 27 28 27 27 26 26 26 27 27 27 26 26 26
31 30 30 29 29 29 29 28 27 27 27 26 26 25 25 25 25 25 24 24 25 25 25 25 25 26 26 26 25 25 25 25 26 26 26 25 26 26
Wind_Direction
291 288 283 279 278 277 273 271 271 271 269 267 267 267 267 267 266 266 266 265 263 263 263 263 262 261 262 263 262 261 261 260 260 260 260 261 260 260
290 287 283 282 280 279 276 274 272 271 271 271 270 269 269 268 267 267 268 267 266 264 263 262 261 261 261 263 263 263 262 260 259 259 259 260 259 258
290 287 285 284 281 279 277 275 274 273 271 271 271 269 267 267 266 266 267 268 268 267 266 263 262 261 261 261 263 263 262 260 260 260 259 258 258 257
289 287 284 283 282 280 279 277 275 273 271 270 270 270 270 269 268 267 267 267 269 270 269 266 264 262 262 263 262 261 260 260 260 260 258 257 255 254
288 287 284 282 280 279 278 277 275 272 271 271 271 271 271 271 269 268 268 269 270 271 271 269 268 267 266 265 262 261 261 260 259 258 256 255 254 253
287 286 284 281 280 277 277 276 275 273 272 272 273 273 273 272 271 270 269 270 272 272 271 270 270 269 268 267 264 262 262 261 260 258 255 252 252 253
287 286 284 281 281 278 277 275 275 274 274 275 275 274 273 273 273 271 269 271 272 272 272 272 272 270 269 268 265 263 261 261 260 257 254 252 252 252
286 285 283 281 280 278 277 275 274 274 275 276 275 274 273 273 273 273 271 271 272 272 272 272 272 270 269 267 266 264 261 261 260 258 254 252 252 253
283 283 283 281 280 279 278 277 276 276 276 276 275 274 274 273 273 273 273 273 273 273 272 271 271 269 268 267 268 265 261 260 259 258 256 254 254 253
281 281 281 280 280 280 280 279 278 277 277 276 276 275 275 274 274 274 274 274 273 272 271 270 269 269 268 267 267 266 262 261 260 258 256 255 255 254
280 279 279 279 280 280 280 280 278 277 277 277 277 276 276 275 275 275 275 275 273 271 271 269 268 267 266 265 264 264 262 261 260 258 257 256 255 255
279 278 278 279 280 281 281 281 280 279 279 278 278 277 276 276 276 276 277 275 273 270 270 269 268 266 264 263 263 263 261 259 259 259 258 255 256 256
278 278 279 280 279 278 279 280 280 280 280 279 279 279 278 277 276 277 276 274 272 271 269 268 267 265 263 261 261 261 260 260 258 258 259 258 257 257
279 278 277 278 278 277 278 278 279 280 280 280 280 279 278 277 277 276 275 274 273 270 268 267 267 264 262 260 259 258 258 259 257 257 259 259 260 259
278 278 278 278 278 278 279 279 279 280 280 280 280 280 279 279 278 277 276 274 272 269 268 267 266 264 262 260 258 257 256 257 257 255 257 259 259 258
278 278 279 279 280 280 280 280 280 280 280 280 279 278 279 279 279 278 276 273 270 268 267 266 266 262 260 260 258 257 257 258 259 258 256 258 258 257
276 277 278 279 280 281 280 280 281 281 281 279 278 278 280 280 278 279 277 272 268 266 265 265 263 261 259 260 258 257 258 258 258 258 257 256 257 258
276 276 278 278 279 279 279 279 280 280 280 280 281 280 280 280 279 278 276 272 269 265 264 263 262 260 259 258 256 256 258 258 257 258 259 259 259 258
276 277 278 279 278 279 279 280 281 281 281 281 281 280 279 279 278 277 276 271 268 264 262 261 260 259 259 257 254 254 256 256 257 258 259 259 261 261
277 278 278 278 277 278 279 279 279 280 281 281 281 280 279 279 278 277 275 273 268 264 261 260 259 259 257 255 252 252 254 255 257 260 260 260 261 261
276 276 276 276 277 277 278 278 278 279 281 281 281 280 280 278 277 276 274 272 268 264 261 260 257 256 255 253 253 253 255 256 258 261 263 262 261 260
274 274 273 274 274 275 277 278 279 280 281 280 280 280 280 278 277 276 272 270 267 262 260 258 256 254 253 254 254 254 255 257 260 263 264 265 263 263
275 274 273 272 273 274 275 277 279 280 281 280 279 280 279 277 276 275 272 270 268 264 261 258 255 252 252 253 254 255 256 257 259 262 264 264 266 267
Height
5785 5783 5782 5781 5781 5780 5780 5780 5780 5780 5780 5780 5779 5779 5779 5779 5779 5780 5780 5781 5781 5781 5782 5783 5783 5784 5784 5785 5786 5786 5787 5788 5788 5789 5790 5791 5792 5792
5780 5778 5777 5776 5776 5775 5775 5775 5774 5775 5774 5773 5773 5773 5773 5773 5774 5774 5774 5774 5774 5774 5775 5775 5776 5777 5778 5778 5779 5779 5780 5781 5781 5782 5783 5784 5785 5786
5775 5773 5772 5771 5770 5770 5769 5769 5768 5768 5768 5768 5767 5767 5767 5768 5768 5768 5768 5768 5768 5767 5768 5768 5768 5769 5770 5770 5771 5772 5772 5773 5774 5775 5776 5777 5778 5779
5769 5768 5767 5766 5765 5764 5764 5763 5762 5762 5762 5762 5761 5761 5761 5761 5761 5761 5761 5761 5761 5761 5761 5761 5761 5761 5762 5762 5763 5763 5764 5765 5765 5766 5767 5769 5770 5772
5764 5762 5761 5760 5759 5758 5758 5757 5756 5756 5755 5755 5755 5755 5755 5755 5755 5755 5755 5755 5754 5754 5754 5753 5753 5753 5753 5754 5754 5755 5755 5756 5757 5757 5759 5760 5762 5764
5758 5756 5755 5754 5753 5752 5752 5751 5750 5750 5749 5749 5749 5748 5748 5748 5748 5748 5748 5747 5747 5747 5746 5746 5745 5745 5745 5744 5745 5745 5746 5747 5747 5748 5749 5751 5754 5756
5751 5750 5749 5747 5747 5746 5745 5744 5744 5743 5743 5742 5742 5742 5741 5741 5740 5740 5740 5739 5739 5738 5738 5737 5736 5736 5735 5735 5736 5736 5737 5737 5738 5738 5740 5742 5745 5747
5745 5743 5742 5741 5740 5739 5738 5737 5737 5736 5736 5735 5735 5734 5733 5733 5732 5732 5732 5731 5731 5730 5729 5729 5727 5727 5727 5727 5727 5727 5728 5728 5729 5730 5731 5734 5736 5739
5737 5736 5735 5733 5732 5731 5730 5730 5729 5728 5728 5727 5727 5726 5725 5725 5724 5724 5723 5722 5722 5721 5720 5719 5718 5718 5718 5718 5718 5719 5719 5720 5721 5722 5723 5725 5727 5729
5729 5728 5727 5725 5724 5724 5723 5722 5721 5720 5720 5719 5718 5717 5716 5716 5715 5715 5714 5713 5712 5711 5710 5710 5709 5709 5709 5709 5709 5710 5710 5711 5712 5714 5715 5717 5718 5720
5721 5719 5718 5717 5716 5715 5715 5714 5713 5711 5710 5709 5709 5708 5707 5706 5705 5704 5704 5703 5702 5701 5700 5700 5700 5700 5700 5700 5700 5700 5701 5702 5703 5705 5706 5708 5709 5711
5712 5711 5709 5708 5707 5706 5705 5705 5704 5702 5701 5700 5699 5698 5697 5696 5695 5694 5693 5692 5691 5691 5690 5690 5690 5691 5691 5692 5692 5692 5693 5694 5695 5696 5697 5699 5700 5701
5703 5702 5700 5699 5698 5697 5696 5696 5694 5693 5692 5691 5690 5688 5687 5685 5684 5683 5682 5681 5680 5681 5680 5680 5680 5681 5681 5683 5683 5684 5684 5685 5686 5687 5688 5690 5691 5692
5694 5692 5691 5690 5689 5688 5687 5686 5685 5684 5682 5681 5680 5678 5676 5675 5673 5672 5671 5670 5669 5669 5669 5669 5670 5670 5671 5672 5674 5675 5676 5676 5677 5679 5680 5681 5682 5684
5684 5683 5682 5681 5680 5679 5678 5676 5675 5673 5672 5671 5669 5667 5666 5664 5663 5661 5659 5659 5658 5658 5658 5659 5660 5660 5661 5662 5664 5665 5666 5668 5669 5670 5671 5672 5673 5674
5675 5674 5673 5672 5670 5669 5668 5666 5665 5663 5662 5660 5658 5657 5655 5654 5652 5650 5649 5648 5648 5648 5648 5648 5649 5650 5651 5652 5653 5655 5656 5658 5660 5661 5662 5663 5664 5665
5665 5664 5663 5662 5661 5659 5658 5656 5655 5653 5652 5650 5648 5647 5645 5643 5641 5640 5639 5637 5637 5637 5637 5638 5639 5640 5641 5642 5643 5645 5647 5649 5650 5651 5653 5654 5654 5655
5655 5654 5653 5652 5651 5649 5648 5646 5645 5643 5642 5640 5639 5637 5635 5633 5632 5630 5628 5628 5627 5627 5628 5628 5629 5630 5632 5633 5635 5636 5637 5639 5641 5642 5643 5644 5645 5646
5645 5644 5643 5642 5640 5639 5638 5637 5635 5634 5632 5630 5629 5627 5625 5624 5622 5621 5619 5618 5618 5618 5619 5619 5620 5622 5623 5625 5626 5627 5629 5630 5631 5633 5634 5635 5636 5637
5635 5634 5633 5631 5630 5629 5628 5627 5626 5624 5622 5621 5619 5618 5616 5615 5613 5612 5611 5610 5609 5609 5610 5611 5612 5613 5615 5616 5618 5619 5620 5622 5623 5624 5625 5626 5627 5628
5624 5623 5622 5621 5620 5620 5619 5617 5616 5615 5613 5612 5610 5608 5607 5606 5604 5603 5602 5601 5601 5601 5602 5603 5603 5605 5606 5608 5610 5611 5612 5613 5614 5615 5616 5617 5618 5618
5613 5612 5612 5611 5610 5610 5609 5608 5607 5605 5604 5603 5601 5600 5599 5597 5596 5595 5594 5594 5593 5593 5594 5594 5595 5596 5598 5600 5602 5603 5604 5605 5606 5606 5607 5609 5609 5610
5602 5602 5602 5601 5601 5600 5600 5599 5597 5596 5595 5594 5593 5592 5590 5589 5588 5587 5586 5586 5586 5585 5586 5586 5587 5589 5590 5592 5593 5595 5596 5597 5597 5598 5599 5600 5600 5601